Regional Weather Roundup
Issued by NWS

Home | Current Version | Previous Version | Graphics & Text | Print | Product List | Glossary On
Versions: 1 2 3 4 5 6 7 8 9 10 11 12 13 14 15 16 17 18 19 20 21 22 23 24 25 26 27 28 29 30 31 32 33 34 35 36 37 38 39 40 41 42 43 44 45 46 47 48 49 50
232
ASUS43 KDTX 202310
RWRMI
MICHIGAN HOURLY REGIONAL WEATHER ROUNDUP
NATIONAL WEATHER SERVICE DETROIT/PONTIAC MI
600 PM EST TUE FEB 20 2018

NOTE: "FAIR" INDICATES FEW OR NO CLOUDS BELOW 12,000 FEET WITH NO
SIGNIFICANT WEATHER AND/OR OBSTRUCTION TO VISIBILITY.

MIZ047>049-052>055-059>063-066>070-074>076-081>083-210000-
SOUTHEAST LOWER MICHIGAN

CITY           SKY/WX    TMP DP  RH WIND       PRES   REMARKS
ADRIAN         MOCLDY    62  58  86 S10       29.99S
ALMA           LGT RAIN  56  56 100 SW6G20    29.92R
ANN ARBOR      FAIR      58  58 100 S5        29.98S
BAD AXE        RAIN      57  57  99 S16       29.92R
CARO           LGT RAIN  59  58  97 S16G22    29.92R
DETROIT CITY   FAIR      60  57  89 S12       29.99R
DETROIT        CLOUDY    60  58  92 S8        29.99S
FLINT          LGT RAIN  60  57  89 S15       29.94R FOG
GROSSE ILE     FOG       44  43  98 S6        29.99S VSB 1/4
HILLSDALE      RAIN      61  55  82 S7        29.96F
HOWELL         LGT RAIN  60  58  92 S13       29.96R

CITY           SKY/WX    TMP DP  RH WIND       PRES   REMARKS
JACKSON        CLOUDY    61  59  93 S7        29.95F
LAMBERTVILLE   FAIR      67  58  71 S9        29.99S
LANSING        LGT RAIN  61  59  93 S14G21    29.93R
LAPEER         RAIN      60  58  94 SW14      29.96R
MASON          RAIN      62  56  82 S10G20    29.94F
MONROE         FAIR      60  57  91 SE7       29.99S
MT. CLEMENS    LGT RAIN  54  54 100 S8        29.99R FOG
PONTIAC        LGT RAIN  59  58  96 S10       29.98R
PORT HOPE        N/A     58  56  93 S8        29.88R
PORT HURON     DRIZZLE   57  55  94 S10       29.99S
TRI CITIES     LGT RAIN  60  57  89 S17G25    29.88S FOG
MIDLAND        LGT RAIN  59  57  94 SW14G24   29.89R
TROY           MOCLDY    60  58  93 S3        30.01R
SAGINAW HB     RAIN      59  57  94 S21G28    29.89S
$$
MIZ043>046-050>051-056>058-064>065-071>073-077>080-210000-
SOUTHWEST LOWER MICHIGAN

CITY           SKY/WX    TMP DP  RH WIND       PRES   REMARKS
BATTLE CREEK   HVY RAIN  58  56  93 NW13G32   29.97R FOG
BENTON HARBOR  LGT RAIN  54  53  97 SW5       29.95R FOG
BIG RAPIDS     LGT RAIN  53  51  91 S3        29.88R
COLDWATER      LGT RAIN  62  62 100 S9        29.95S
FREMONT        RAIN      52  51  97 S6        29.87F
HOLLAND        LGT RAIN  54  52  93 SW8       29.93R FOG
GRAND RAPIDS   RAIN      56  56 100 W9        29.93R
IONIA          RAIN      57  56  97 W9        29.93R
KALAMAZOO      RAIN      58  54  86 NW10G21   29.97R FOG
LUDINGTON      LGT RAIN  40  40 100 NW6       29.89R
MARSHALL       CLOUDY    61  61  98 S10       29.93S
MOUNT PLEASANT RAIN      57  55  95 SW7       29.90R
MUSKEGON       LGT RAIN  53  50  89 S7        29.89R FOG
SOUTH HAVEN    RAIN      55  54  94 SW7       29.96R
$$
MIZ016>042-210000-
NORTHERN LOWER MICHIGAN

CITY           SKY/WX    TMP DP  RH WIND       PRES   REMARKS
ALPENA         RAIN      53  53 100 S5        29.85R FOG
BEAVER ISLAND  CLOUDY    33  33  99 W12       29.85R WCI  24
BELLAIRE       LGT SNOW  40  40 100 NW10G16   29.86R WCI  33
CADILLAC       RAIN      51  50  99 S7        29.85S
CHARLEVOIX     LGT RAIN  36  36 100 W10G16    29.90R WCI  28
FRANKFORT      LGT RAIN  39  39 100 W7        29.89R WCI  34
GAYLORD        RAIN      50  50 100 S9        29.83S FOG
GRAYLING       LGT RAIN  52  52 100 SW5       29.84S FOG
HARBOR SPRINGS LGT RAIN  35  35  99 W6        29.84R WCI  30
HOUGHTON LAKE  LGT RAIN  51  51 100 SW6       29.87R FOG
MANISTEE       LGT RAIN  39  38  96 W6        29.89R WCI  35
OSCODA         RAIN      54  54  98 S14       29.84F
PELLSTON       LGT RAIN  39  38  96 NW8       29.85R WCI  33
ROGERS CITY    RAIN      38  37  96 CALM      29.86R
TRAVERSE CITY  LGT RAIN  43  40  89 W12       29.82R
$$
MIZ007>008-015-210000-
EASTERN UPPER MICHIGAN

CITY           SKY/WX    TMP DP  RH WIND       PRES   REMARKS
KINROSS        MIX PCPN  30  30 100 CALM      29.82R FOG
MACKINAC ISLAN MIX PCPN  34  34 100 W6        29.84R WCI  29
NEWBERRY       CLOUDY    33  32  96 SW5       29.79S WCI  29
S. S. MARIE    CLOUDY    32  31  96 CALM      29.81S FOG
MUNISING         N/A     32  31  96 CALM      29.83R
$$
MIZ004>006-011>014-085-210000-
CENTRAL UPPER MICHIGAN

CITY           SKY/WX    TMP DP  RH WIND       PRES   REMARKS
MANISTIQUE     CLOUDY    32  31  96 W3        29.83R
ESCANABA       CLOUDY    32  30  92 W6        29.86R WCI  26
MENOMINEE      CLOUDY    34  32  93 VRB3      29.88R FOG
SAWYER-GWINN   CLOUDY    28  27  93 W7        29.81R WCI  21
$$
MIZ001>003-009>011-084-210000-
WESTERN UPPER MICHIGAN

CITY           SKY/WX    TMP DP  RH WIND       PRES   REMARKS
IRON MOUNTAIN  CLOUDY    31  26  82 W14       29.83R WCI  21
HOUGHTON       FRZ RAIN  21  17  84 N12       29.86R FOG     WCI   9
COPPER HARBOR    N/A     21  19  92 NE12      29.87R WCI   9
IRONWOOD       LGT SNOW  18  17  96 W8        29.95R FOG     WCI   8
$$

ABBREVIATIONS USED IN REMARKS
   TC - TEMPERATURE IN CELSIUS
  WCI - WIND CHILL INDEX
   HX - HEAT INDEX
  VSB - VISIBILITY





USA.gov is the U.S. government's official web portal to all federal, state and local government web resources and services.